Time,TemperatureF,DewpointF,PressureIn,WindDirection,WindDirectionDegrees,WindSpeedMPH,WindSpeedGustMPH,Humidity,HourlyPrecipIn,Conditions,Clouds,dailyrainin,SoftwareType,DateUTC
2013-04-02 00:00:00,30.0,-8.8,27.05,North,0,0.0,0.0,18,0.00,NA,NA,-99.99,wxupload 3.5,2013-04-02 04:00:00,
2013-04-02 00:02:00,30.0,-8.8,27.05,North,0,0.0,0.0,18,0.00,NA,NA,-99.99,wxupload 3.5,2013-04-02 04:02:00,
2013-04-02 00:04:00,29.8,-9.0,27.05,North,0,0.0,0.0,18,0.00,NA,NA,-99.99,wxupload 3.5,2013-04-02 04:04:00,
2013-04-02 00:10:00,29.8,-9.0,27.05,North,0,0.0,0.0,18,0.00,NA,NA,-99.99,wxupload 3.5,2013-04-02 04:10:00,
2013-04-02 00:16:00,29.8,-9.0,27.05,North,0,0.0,0.0,18,0.00,NA,NA,-99.99,wxupload 3.5,2013-04-02 04:16:00,
2013-04-02 00:22:00,29.7,-9.1,27.05,North,0,0.0,0.0,18,0.00,NA,NA,-99.99,wxupload 3.5,2013-04-02 04:22:00,
2013-04-02 00:28:00,29.7,-9.1,27.05,North,0,0.0,0.0,18,0.00,NA,NA,-99.99,wxupload 3.5,2013-04-02 04:28:00,
2013-04-02 00:34:00,29.7,-9.1,27.05,North,0,0.0,0.0,18,0.00,NA,NA,-99.99,wxupload 3.5,2013-04-02 04:34:00,
2013-04-02 00:40:00,29.5,-9.3,27.05,North,0,0.0,0.0,18,0.00,NA,NA,-99.99,wxupload 3.5,2013-04-02 04:40:00,
2013-04-02 00:46:00,29.5,-9.3,27.05,North,0,0.0,0.0,18,0.00,NA,NA,-99.99,wxupload 3.5,2013-04-02 04:46:00,
2013-04-02 00:52:00,29.3,-9.4,27.05,North,0,0.0,0.0,18,0.00,NA,NA,-99.99,wxupload 3.5,2013-04-02 04:52:00,
2013-04-02 00:58:00,29.1,-9.6,27.05,North,0,0.0,0.0,18,0.00,NA,NA,-99.99,wxupload 3.5,2013-04-02 04:58:00,
2013-04-02 01:04:00,29.1,-9.6,27.05,North,0,0.0,0.0,18,0.00,NA,NA,-99.99,wxupload 3.5,2013-04-02 05:04:00,
2013-04-02 01:10:00,29.1,-9.6,27.05,North,0,0.0,0.0,18,0.00,NA,NA,-99.99,wxupload 3.5,2013-04-02 05:10:00,
2013-04-02 01:16:00,29.1,-9.6,27.05,North,0,0.0,0.0,18,0.00,NA,NA,-99.99,wxupload 3.5,2013-04-02 05:16:00,
2013-04-02 01:22:00,28.9,-9.7,27.05,North,0,0.0,0.0,18,0.00,NA,NA,-99.99,wxupload 3.5,2013-04-02 05:22:00,
2013-04-02 01:28:00,28.9,-9.7,27.05,North,0,0.0,0.0,18,0.00,NA,NA,-99.99,wxupload 3.5,2013-04-02 05:28:00,
2013-04-02 01:34:00,28.9,-9.7,27.05,North,0,0.0,0.0,18,0.00,NA,NA,-99.99,wxupload 3.5,2013-04-02 05:34:00,
2013-04-02 01:40:00,28.8,-9.9,27.05,North,0,0.0,0.0,18,0.00,NA,NA,-99.99,wxupload 3.5,2013-04-02 05:40:00,
2013-04-02 01:46:00,28.8,-9.9,27.05,North,0,0.0,0.0,18,0.00,NA,NA,-99.99,wxupload 3.5,2013-04-02 05:46:00,
2013-04-02 01:52:00,28.6,-10.0,27.05,North,0,0.0,0.0,18,0.00,NA,NA,-99.99,wxupload 3.5,2013-04-02 05:52:00,
2013-04-02 01:58:00,28.6,-10.0,27.05,North,0,0.0,0.0,18,0.00,NA,NA,-99.99,wxupload 3.5,2013-04-02 05:58:00,
2013-04-02 02:04:00,28.6,-10.0,27.05,North,0,0.0,0.0,18,0.00,NA,NA,-99.99,wxupload 3.5,2013-04-02 06:04:00,
2013-04-02 02:10:00,28.4,-10.2,27.05,North,0,0.0,0.0,18,0.00,NA,NA,-99.99,wxupload 3.5,2013-04-02 06:10:00,
2013-04-02 02:16:00,28.4,-10.2,27.05,North,0,0.0,0.0,18,0.00,NA,NA,-99.99,wxupload 3.5,2013-04-02 06:16:00,
2013-04-02 02:22:00,28.4,-10.2,27.05,North,0,0.0,0.0,18,0.00,NA,NA,-99.99,wxupload 3.5,2013-04-02 06:22:00,
2013-04-02 02:28:00,28.4,-10.2,27.05,North,0,0.0,0.0,18,0.00,NA,NA,-99.99,wxupload 3.5,2013-04-02 06:28:00,
2013-04-02 02:34:00,28.4,-10.2,27.05,North,0,0.0,0.0,18,0.00,NA,NA,-99.99,wxupload 3.5,2013-04-02 06:34:00,
2013-04-02 02:40:00,28.4,-10.2,27.05,North,0,0.0,0.0,18,0.00,NA,NA,-99.99,wxupload 3.5,2013-04-02 06:40:00,
2013-04-02 02:46:00,28.4,-10.2,27.05,North,0,0.0,0.0,18,0.00,NA,NA,-99.99,wxupload 3.5,2013-04-02 06:46:00,
2013-04-02 02:52:00,28.6,-10.0,27.05,North,0,0.0,0.0,18,0.00,NA,NA,-99.99,wxupload 3.5,2013-04-02 06:52:00,
2013-04-02 02:58:00,28.6,-10.0,27.05,North,0,0.0,0.0,18,0.00,NA,NA,-99.99,wxupload 3.5,2013-04-02 06:58:00,
2013-04-02 03:04:00,28.6,-10.0,27.05,North,0,0.0,0.0,18,0.00,NA,NA,-99.99,wxupload 3.5,2013-04-02 07:04:00,
2013-04-02 03:10:00,28.4,-10.2,27.05,North,0,0.0,0.0,18,0.00,NA,NA,-99.99,wxupload 3.5,2013-04-02 07:10:00,
2013-04-02 03:16:00,28.4,-10.2,27.05,North,0,0.0,0.0,18,0.00,NA,NA,-99.99,wxupload 3.5,2013-04-02 07:16:00,
2013-04-02 03:22:00,28.4,-10.2,27.05,North,0,0.0,0.0,18,0.00,NA,NA,-99.99,wxupload 3.5,2013-04-02 07:22:00,
2013-04-02 03:28:00,28.6,-10.0,27.05,North,0,0.0,0.0,18,0.00,NA,NA,-99.99,wxupload 3.5,2013-04-02 07:28:00,
2013-04-02 03:34:00,28.6,-10.0,27.05,North,0,0.0,0.0,18,0.00,NA,NA,-99.99,wxupload 3.5,2013-04-02 07:34:00,
2013-04-02 03:40:00,28.6,-10.0,27.05,North,0,0.0,0.0,18,0.00,NA,NA,-99.99,wxupload 3.5,2013-04-02 07:40:00,
2013-04-02 03:46:00,28.4,-10.2,27.05,North,0,0.0,0.0,18,0.00,NA,NA,-99.99,wxupload 3.5,2013-04-02 07:46:00,
2013-04-02 03:52:00,28.4,-10.2,27.05,North,0,0.0,0.0,18,0.00,NA,NA,-99.99,wxupload 3.5,2013-04-02 07:52:00,
2013-04-02 03:58:00,28.2,-10.3,27.05,North,0,0.0,0.0,18,0.00,NA,NA,-99.99,wxupload 3.5,2013-04-02 07:58:00,
2013-04-02 04:04:00,28.2,-10.3,27.05,North,0,0.0,0.0,18,0.00,NA,NA,-99.99,wxupload 3.5,2013-04-02 08:04:00,
2013-04-02 04:10:00,28.0,-10.5,27.05,North,0,0.0,0.0,18,0.00,NA,NA,-99.99,wxupload 3.5,2013-04-02 08:10:00,
2013-04-02 04:16:00,28.0,-10.5,27.05,North,0,0.0,0.0,18,0.00,NA,NA,-99.99,wxupload 3.5,2013-04-02 08:16:00,
2013-04-02 04:22:00,27.9,-10.6,27.05,North,0,0.0,0.0,18,0.00,NA,NA,-99.99,wxupload 3.5,2013-04-02 08:22:00,
2013-04-02 04:28:00,27.5,-10.9,27.05,North,0,0.0,0.0,18,0.00,NA,NA,-99.99,wxupload 3.5,2013-04-02 08:28:00,
2013-04-02 04:34:00,27.3,-11.1,27.05,North,0,0.0,0.0,18,0.00,NA,NA,-99.99,wxupload 3.5,2013-04-02 08:34:00,
2013-04-02 04:40:00,27.1,-11.3,27.05,North,0,0.0,0.0,18,0.00,NA,NA,-99.99,wxupload 3.5,2013-04-02 08:40:00,
2013-04-02 04:46:00,27.0,-11.4,27.05,North,0,0.0,0.0,18,0.00,NA,NA,-99.99,wxupload 3.5,2013-04-02 08:46:00,
2013-04-02 04:52:00,27.0,-11.4,27.05,North,0,0.0,0.0,18,0.00,NA,NA,-99.99,wxupload 3.5,2013-04-02 08:52:00,
2013-04-02 04:58:00,26.8,-11.6,27.05,North,0,0.0,0.0,18,0.00,NA,NA,-99.99,wxupload 3.5,2013-04-02 08:58:00,
2013-04-02 05:04:00,26.6,-10.6,27.05,North,0,0.0,0.0,19,0.00,NA,NA,-99.99,wxupload 3.5,2013-04-02 09:04:00,
2013-04-02 05:10:00,26.6,-10.6,27.05,North,0,0.0,0.0,19,0.00,NA,NA,-99.99,wxupload 3.5,2013-04-02 09:10:00,
2013-04-02 05:16:00,26.4,-10.7,27.05,North,0,0.0,0.0,19,0.00,NA,NA,-99.99,wxupload 3.5,2013-04-02 09:16:00,
2013-04-02 05:22:00,26.2,-10.9,27.05,North,0,0.0,0.0,19,0.00,NA,NA,-99.99,wxupload 3.5,2013-04-02 09:22:00,
2013-04-02 05:28:00,26.2,-10.9,27.05,North,0,0.0,0.0,19,0.00,NA,NA,-99.99,wxupload 3.5,2013-04-02 09:28:00,
2013-04-02 05:34:00,26.1,-11.1,27.05,North,0,0.0,0.0,19,0.00,NA,NA,-99.99,wxupload 3.5,2013-04-02 09:34:00,
2013-04-02 05:40:00,26.1,-11.1,27.05,North,0,0.0,0.0,19,0.00,NA,NA,-99.99,wxupload 3.5,2013-04-02 09:40:00,
2013-04-02 05:46:00,26.2,-10.9,27.05,North,0,0.0,0.0,19,0.00,NA,NA,-99.99,wxupload 3.5,2013-04-02 09:46:00,
2013-04-02 05:52:00,26.2,-10.9,27.05,North,0,0.0,0.0,19,0.00,NA,NA,-99.99,wxupload 3.5,2013-04-02 09:52:00,
2013-04-02 05:58:00,26.4,-10.7,27.05,North,0,0.0,0.0,19,0.00,NA,NA,-99.99,wxupload 3.5,2013-04-02 09:58:00,
2013-04-02 06:04:00,26.4,-10.7,27.05,North,0,0.0,0.0,19,0.00,NA,NA,-99.99,wxupload 3.5,2013-04-02 10:04:00,
2013-04-02 06:10:00,26.4,-10.7,27.05,North,0,0.0,0.0,19,0.00,NA,NA,-99.99,wxupload 3.5,2013-04-02 10:10:00,
2013-04-02 06:17:00,26.4,-10.7,27.05,North,0,0.0,0.0,19,0.00,NA,NA,-99.99,wxupload 3.5,2013-04-02 10:17:00,
2013-04-02 06:22:00,26.4,-10.7,27.05,North,0,0.0,0.0,19,0.00,NA,NA,-99.99,wxupload 3.5,2013-04-02 10:22:00,
2013-04-02 06:28:00,26.4,-10.7,27.05,North,0,0.0,0.0,19,0.00,NA,NA,-99.99,wxupload 3.5,2013-04-02 10:28:00,
2013-04-02 06:34:00,26.6,-10.6,27.05,North,0,0.0,0.0,19,0.00,NA,NA,-99.99,wxupload 3.5,2013-04-02 10:34:00,
2013-04-02 06:40:00,26.6,-10.6,27.05,North,0,0.0,0.0,19,0.00,NA,NA,-99.99,wxupload 3.5,2013-04-02 10:40:00,
2013-04-02 06:46:00,26.8,-11.6,27.05,North,0,0.0,0.0,18,0.00,NA,NA,-99.99,wxupload 3.5,2013-04-02 10:46:00,
2013-04-02 06:52:00,26.8,-11.6,27.05,North,0,0.0,0.0,18,0.00,NA,NA,-99.99,wxupload 3.5,2013-04-02 10:52:00,
2013-04-02 06:58:00,26.8,-11.6,27.05,North,0,0.0,0.0,18,0.00,NA,NA,-99.99,wxupload 3.5,2013-04-02 10:58:00,
2013-04-02 07:04:00,26.8,-11.6,27.05,North,0,0.0,0.0,18,0.00,NA,NA,-99.99,wxupload 3.5,2013-04-02 11:04:00,
2013-04-02 07:10:00,27.0,-11.4,27.05,North,0,0.0,0.0,18,0.00,NA,NA,-99.99,wxupload 3.5,2013-04-02 11:10:00,
2013-04-02 07:16:00,27.0,-11.4,27.05,North,0,0.0,0.0,18,0.00,NA,NA,-99.99,wxupload 3.5,2013-04-02 11:16:00,
2013-04-02 07:22:00,27.0,-11.4,27.05,North,0,0.0,0.0,18,0.00,NA,NA,-99.99,wxupload 3.5,2013-04-02 11:22:00,
2013-04-02 07:28:00,27.0,-11.4,27.05,North,0,0.0,0.0,18,0.00,NA,NA,-99.99,wxupload 3.5,2013-04-02 11:28:00,
2013-04-02 07:34:00,27.1,-11.3,27.05,North,0,0.0,0.0,18,0.00,NA,NA,-99.99,wxupload 3.5,2013-04-02 11:34:00,
2013-04-02 07:40:00,27.3,-11.1,27.05,North,0,0.0,0.0,18,0.00,NA,NA,-99.99,wxupload 3.5,2013-04-02 11:40:00,
2013-04-02 07:46:00,27.7,-10.8,27.05,North,0,0.0,0.0,18,0.00,NA,NA,-99.99,wxupload 3.5,2013-04-02 11:46:00,
2013-04-02 07:52:00,27.9,-10.6,27.05,North,0,0.0,0.0,18,0.00,NA,NA,-99.99,wxupload 3.5,2013-04-02 11:52:00,
2013-04-02 07:58:00,28.2,-10.3,27.05,North,0,0.0,0.0,18,0.00,NA,NA,-99.99,wxupload 3.5,2013-04-02 11:58:00,
2013-04-02 08:04:00,28.6,-10.0,27.05,North,0,0.0,0.0,18,0.00,NA,NA,-99.99,wxupload 3.5,2013-04-02 12:04:00,
2013-04-02 08:10:00,28.8,-9.9,27.05,North,0,0.0,0.0,18,0.00,NA,NA,-99.99,wxupload 3.5,2013-04-02 12:10:00,
2013-04-02 08:16:00,29.1,-9.6,27.05,North,0,0.0,0.0,18,0.00,NA,NA,-99.99,wxupload 3.5,2013-04-02 12:16:00,
2013-04-02 08:22:00,29.5,-9.3,27.05,North,0,0.0,0.0,18,0.00,NA,NA,-99.99,wxupload 3.5,2013-04-02 12:22:00,
2013-04-02 08:28:00,29.7,-9.1,27.05,North,0,0.0,0.0,18,0.00,NA,NA,-99.99,wxupload 3.5,2013-04-02 12:28:00,
2013-04-02 08:34:00,29.5,-9.3,27.05,North,0,0.0,0.0,18,0.00,NA,NA,-99.99,wxupload 3.5,2013-04-02 12:34:00,
2013-04-02 08:40:00,29.3,-9.4,27.05,North,0,0.0,0.0,18,0.00,NA,NA,-99.99,wxupload 3.5,2013-04-02 12:40:00,
2013-04-02 08:46:00,29.5,-9.3,27.05,North,0,0.0,0.0,18,0.00,NA,NA,-99.99,wxupload 3.5,2013-04-02 12:46:00,
2013-04-02 08:52:00,29.8,-9.0,27.05,North,0,0.0,0.0,18,0.00,NA,NA,-99.99,wxupload 3.5,2013-04-02 12:52:00,
2013-04-02 08:58:00,30.2,-8.7,27.05,North,0,0.0,0.0,18,0.00,NA,NA,-99.99,wxupload 3.5,2013-04-02 12:58:00,
2013-04-02 09:04:00,30.6,-8.4,27.05,North,0,0.0,0.0,18,0.00,NA,NA,-99.99,wxupload 3.5,2013-04-02 13:04:00,
2013-04-02 09:10:00,31.1,-7.9,27.05,North,0,0.0,0.0,18,0.00,NA,NA,-99.99,wxupload 3.5,2013-04-02 13:10:00,
2013-04-02 09:16:00,31.5,-7.6,27.05,North,0,0.0,0.0,18,0.00,NA,NA,-99.99,wxupload 3.5,2013-04-02 13:16:00,
2013-04-02 09:22:00,32.0,-7.1,27.05,North,0,0.0,0.0,18,0.00,NA,NA,-99.99,wxupload 3.5,2013-04-02 13:22:00,
2013-04-02 09:28:00,32.5,-6.7,27.05,North,0,0.0,0.0,18,0.00,NA,NA,-99.99,wxupload 3.5,2013-04-02 13:28:00,
2013-04-02 09:34:00,32.9,-6.4,27.05,North,0,0.0,0.0,18,0.00,NA,NA,-99.99,wxupload 3.5,2013-04-02 13:34:00,
2013-04-02 09:40:00,33.4,-5.9,27.05,North,0,0.0,0.0,18,0.00,NA,NA,-99.99,wxupload 3.5,2013-04-02 13:40:00,
2013-04-02 09:46:00,34.0,-6.7,27.05,North,0,0.0,0.0,17,0.00,NA,NA,-99.99,wxupload 3.5,2013-04-02 13:46:00,
2013-04-02 09:52:00,34.5,-6.2,27.05,North,0,0.0,0.0,17,0.00,NA,NA,-99.99,wxupload 3.5,2013-04-02 13:52:00,
2013-04-02 09:58:00,35.1,-5.8,27.05,North,0,0.0,0.0,17,0.00,NA,NA,-99.99,wxupload 3.5,2013-04-02 13:58:00,
2013-04-02 10:04:00,35.4,-5.4,27.05,North,0,0.0,0.0,17,0.00,NA,NA,-99.99,wxupload 3.5,2013-04-02 14:04:00,
2013-04-02 10:10:00,35.8,-5.1,27.05,North,0,0.0,0.0,17,0.00,NA,NA,-99.99,wxupload 3.5,2013-04-02 14:10:00,
2013-04-02 10:18:00,35.8,-5.1,27.05,North,0,0.0,0.0,17,0.00,NA,NA,-99.99,wxupload 3.5,2013-04-02 14:18:00,
2013-04-02 10:24:00,36.1,-4.8,27.05,North,0,0.0,0.0,17,0.00,NA,NA,-99.99,wxupload 3.5,2013-04-02 14:24:00,
2013-04-02 10:30:00,36.3,-4.7,27.05,North,0,0.0,0.0,17,0.00,NA,NA,-99.99,wxupload 3.5,2013-04-02 14:30:00,
2013-04-02 10:36:00,36.3,-4.7,27.05,North,0,0.0,0.0,17,0.00,NA,NA,-99.99,wxupload 3.5,2013-04-02 14:36:00,
2013-04-02 10:42:00,36.7,-4.4,27.05,North,0,0.0,0.0,17,0.00,NA,NA,-99.99,wxupload 3.5,2013-04-02 14:42:00,
2013-04-02 10:48:00,37.4,-5.1,27.05,North,0,0.0,0.0,16,0.00,NA,NA,-99.99,wxupload 3.5,2013-04-02 14:48:00,
2013-04-02 10:54:00,37.9,-4.6,27.05,North,0,0.0,0.0,16,0.00,NA,NA,-99.99,wxupload 3.5,2013-04-02 14:54:00,
2013-04-02 11:00:00,38.7,-4.0,27.05,North,0,0.0,0.0,16,0.00,NA,NA,-99.99,wxupload 3.5,2013-04-02 15:00:00,
2013-04-02 11:08:00,38.8,-3.9,27.05,North,0,0.0,0.0,16,0.00,NA,NA,-99.99,wxupload 3.5,2013-04-02 15:08:00,
2013-04-02 11:14:00,39.4,-3.4,27.05,North,0,0.0,0.0,16,0.00,NA,NA,-99.99,wxupload 3.5,2013-04-02 15:14:00,
2013-04-02 11:20:00,39.4,-3.4,27.05,North,0,0.0,0.0,16,0.00,NA,NA,-99.99,wxupload 3.5,2013-04-02 15:20:00,
2013-04-02 11:26:00,39.4,-3.4,27.05,North,0,0.0,0.0,16,0.00,NA,NA,-99.99,wxupload 3.5,2013-04-02 15:26:00,
2013-04-02 11:32:00,39.7,-3.1,27.05,North,0,0.0,0.0,16,0.00,NA,NA,-99.99,wxupload 3.5,2013-04-02 15:32:00,
2013-04-02 11:38:00,39.9,-3.0,27.05,North,0,0.0,0.0,16,0.00,NA,NA,-99.99,wxupload 3.5,2013-04-02 15:38:00,
2013-04-02 11:44:00,40.1,-2.8,27.05,North,0,0.0,0.0,16,0.00,NA,NA,-99.99,wxupload 3.5,2013-04-02 15:44:00,
2013-04-02 11:52:00,40.5,-2.5,27.05,North,0,0.0,0.0,16,0.00,NA,NA,-99.99,wxupload 3.5,2013-04-02 15:52:00,
2013-04-02 11:58:00,40.6,-2.4,27.05,North,0,0.0,0.0,16,0.00,NA,NA,-99.99,wxupload 3.5,2013-04-02 15:58:00,
2013-04-02 12:04:00,41.0,-2.1,27.05,North,0,0.0,0.0,16,0.00,NA,NA,-99.99,wxupload 3.5,2013-04-02 16:04:00,
2013-04-02 12:10:00,41.0,-2.1,27.05,North,0,0.0,0.0,16,0.00,NA,NA,-99.99,wxupload 3.5,2013-04-02 16:10:00,
2013-04-02 12:18:00,41.2,-1.9,27.05,North,0,0.0,0.0,16,0.00,NA,NA,-99.99,wxupload 3.5,2013-04-02 16:18:00,
2013-04-02 12:24:00,41.0,-2.1,27.05,North,0,0.0,0.0,16,0.00,NA,NA,-99.99,wxupload 3.5,2013-04-02 16:24:00,
2013-04-02 12:30:00,40.8,-2.2,27.05,North,0,0.0,0.0,16,0.00,NA,NA,-99.99,wxupload 3.5,2013-04-02 16:30:00,
2013-04-02 12:36:00,40.8,-2.2,27.05,North,0,0.0,0.0,16,0.00,NA,NA,-99.99,wxupload 3.5,2013-04-02 16:36:00,
2013-04-02 12:42:00,40.3,-2.7,27.05,North,0,0.0,0.0,16,0.00,NA,NA,-99.99,wxupload 3.5,2013-04-02 16:42:00,
2013-04-02 12:48:00,39.9,-3.0,27.05,North,0,0.0,0.0,16,0.00,NA,NA,-99.99,wxupload 3.5,2013-04-02 16:48:00,
2013-04-02 12:54:00,39.7,-3.1,27.05,North,0,0.0,0.0,16,0.00,NA,NA,-99.99,wxupload 3.5,2013-04-02 16:54:00,
2013-04-02 13:00:00,39.2,-3.6,27.05,North,0,0.0,0.0,16,0.00,NA,NA,-99.99,wxupload 3.5,2013-04-02 17:00:00,
2013-04-02 13:06:00,39.4,-3.4,27.05,North,0,0.0,0.0,16,0.00,NA,NA,-99.99,wxupload 3.5,2013-04-02 17:06:00,
2013-04-02 13:12:00,39.0,-3.7,27.05,North,0,0.0,0.0,16,0.00,NA,NA,-99.99,wxupload 3.5,2013-04-02 17:12:00,
2013-04-02 13:18:00,39.4,-3.4,27.05,North,0,0.0,0.0,16,0.00,NA,NA,-99.99,wxupload 3.5,2013-04-02 17:18:00,
2013-04-02 13:24:00,39.4,-3.4,27.05,North,0,0.0,0.0,16,0.00,NA,NA,-99.99,wxupload 3.5,2013-04-02 17:24:00,
2013-04-02 13:30:00,39.4,-3.4,27.05,North,0,0.0,0.0,16,0.00,NA,NA,-99.99,wxupload 3.5,2013-04-02 17:30:00,
2013-04-02 13:36:00,39.6,-3.3,27.05,North,0,0.0,0.0,16,0.00,NA,NA,-99.99,wxupload 3.5,2013-04-02 17:36:00,
2013-04-02 13:42:00,38.7,-4.0,27.05,North,0,0.0,0.0,16,0.00,NA,NA,-99.99,wxupload 3.5,2013-04-02 17:42:00,
2013-04-02 13:50:00,38.3,-4.3,27.05,North,0,0.0,0.0,16,0.00,NA,NA,-99.99,wxupload 3.5,2013-04-02 17:50:00,
2013-04-02 13:56:00,38.8,-3.9,27.05,North,0,0.0,0.0,16,0.00,NA,NA,-99.99,wxupload 3.5,2013-04-02 17:56:00,
2013-04-02 14:02:00,38.7,-4.0,27.05,North,0,0.0,0.0,16,0.00,NA,NA,-99.99,wxupload 3.5,2013-04-02 18:02:00,
2013-04-02 14:08:00,38.8,-3.9,27.05,North,0,0.0,0.0,16,0.00,NA,NA,-99.99,wxupload 3.5,2013-04-02 18:08:00,
2013-04-02 14:14:00,38.7,-4.0,27.05,North,0,0.0,0.0,16,0.00,NA,NA,-99.99,wxupload 3.5,2013-04-02 18:14:00,
2013-04-02 14:20:00,38.7,-4.0,27.05,North,0,0.0,0.0,16,0.00,NA,NA,-99.99,wxupload 3.5,2013-04-02 18:20:00,
2013-04-02 14:26:00,39.2,-3.6,27.05,North,0,0.0,0.0,16,0.00,NA,NA,-99.99,wxupload 3.5,2013-04-02 18:26:00,
2013-04-02 14:32:00,38.8,-3.9,27.05,North,0,0.0,0.0,16,0.00,NA,NA,-99.99,wxupload 3.5,2013-04-02 18:32:00,
2013-04-02 14:38:00,38.7,-4.0,27.05,North,0,0.0,0.0,16,0.00,NA,NA,-99.99,wxupload 3.5,2013-04-02 18:38:00,
2013-04-02 14:44:00,38.7,-4.0,27.05,North,0,0.0,0.0,16,0.00,NA,NA,-99.99,wxupload 3.5,2013-04-02 18:44:00,
2013-04-02 14:52:00,39.4,-3.4,27.05,North,0,0.0,0.0,16,0.00,NA,NA,-99.99,wxupload 3.5,2013-04-02 18:52:00,
2013-04-02 14:58:00,39.6,-3.3,27.05,North,0,0.0,0.0,16,0.00,NA,NA,-99.99,wxupload 3.5,2013-04-02 18:58:00,
2013-04-02 15:04:00,39.2,-3.6,27.05,North,0,0.0,0.0,16,0.00,NA,NA,-99.99,wxupload 3.5,2013-04-02 19:04:00,
2013-04-02 15:10:00,39.0,-3.7,27.05,North,0,0.0,0.0,16,0.00,NA,NA,-99.99,wxupload 3.5,2013-04-02 19:10:00,
2013-04-02 15:18:00,38.7,-4.0,27.05,North,0,0.0,0.0,16,0.00,NA,NA,-99.99,wxupload 3.5,2013-04-02 19:18:00,
2013-04-02 15:24:00,38.8,-3.9,27.05,North,0,0.0,0.0,16,0.00,NA,NA,-99.99,wxupload 3.5,2013-04-02 19:24:00,
2013-04-02 15:30:00,38.8,-3.9,27.05,North,0,0.0,0.0,16,0.00,NA,NA,-99.99,wxupload 3.5,2013-04-02 19:30:00,
2013-04-02 15:36:00,39.0,-3.7,27.05,North,0,0.0,0.0,16,0.00,NA,NA,-99.99,wxupload 3.5,2013-04-02 19:36:00,
2013-04-02 15:42:00,38.8,-3.9,27.05,North,0,0.0,0.0,16,0.00,NA,NA,-99.99,wxupload 3.5,2013-04-02 19:42:00,
2013-04-02 15:48:00,38.7,-4.0,27.05,North,0,0.0,0.0,16,0.00,NA,NA,-99.99,wxupload 3.5,2013-04-02 19:48:00,
2013-04-02 15:54:00,38.5,-4.2,27.05,North,0,0.0,0.0,16,0.00,NA,NA,-99.99,wxupload 3.5,2013-04-02 19:54:00,
2013-04-02 16:00:00,37.9,-4.6,27.05,North,0,0.0,0.0,16,0.00,NA,NA,-99.99,wxupload 3.5,2013-04-02 20:00:00,
2013-04-02 16:06:00,38.1,-4.5,27.05,North,0,0.0,0.0,16,0.00,NA,NA,-99.99,wxupload 3.5,2013-04-02 20:06:00,
2013-04-02 16:12:00,38.5,-4.2,27.05,North,0,0.0,0.0,16,0.00,NA,NA,-99.99,wxupload 3.5,2013-04-02 20:12:00,
2013-04-02 16:18:00,38.3,-4.3,27.05,North,0,0.0,0.0,16,0.00,NA,NA,-99.99,wxupload 3.5,2013-04-02 20:18:00,
2013-04-02 16:24:00,38.1,-4.5,27.05,North,0,0.0,0.0,16,0.00,NA,NA,-99.99,wxupload 3.5,2013-04-02 20:24:00,
2013-04-02 16:30:00,38.1,-4.5,27.05,North,0,0.0,0.0,16,0.00,NA,NA,-99.99,wxupload 3.5,2013-04-02 20:30:00,
2013-04-02 16:38:00,37.8,-4.8,27.05,North,0,0.0,0.0,16,0.00,NA,NA,-99.99,wxupload 3.5,2013-04-02 20:38:00,
2013-04-02 16:44:00,37.6,-4.9,27.05,North,0,0.0,0.0,16,0.00,NA,NA,-99.99,wxupload 3.5,2013-04-02 20:44:00,
2013-04-02 16:50:00,37.4,-5.1,27.05,North,0,0.0,0.0,16,0.00,NA,NA,-99.99,wxupload 3.5,2013-04-02 20:50:00,
2013-04-02 16:56:00,37.6,-4.9,27.05,North,0,0.0,0.0,16,0.00,NA,NA,-99.99,wxupload 3.5,2013-04-02 20:56:00,
2013-04-02 17:02:00,37.4,-5.1,27.05,North,0,0.0,0.0,16,0.00,NA,NA,-99.99,wxupload 3.5,2013-04-02 21:02:00,
2013-04-02 17:08:00,37.6,-4.9,27.05,North,0,0.0,0.0,16,0.00,NA,NA,-99.99,wxupload 3.5,2013-04-02 21:08:00,
2013-04-02 17:14:00,37.6,-4.9,27.05,North,0,0.0,0.0,16,0.00,NA,NA,-99.99,wxupload 3.5,2013-04-02 21:14:00,
2013-04-02 17:20:00,37.4,-5.1,27.05,North,0,0.0,0.0,16,0.00,NA,NA,-99.99,wxupload 3.5,2013-04-02 21:20:00,
2013-04-02 17:26:00,37.4,-5.1,27.05,North,0,0.0,0.0,16,0.00,NA,NA,-99.99,wxupload 3.5,2013-04-02 21:26:00,
2013-04-02 17:32:00,37.0,-4.1,27.05,North,0,0.0,0.0,17,0.00,NA,NA,-99.99,wxupload 3.5,2013-04-02 21:32:00,
2013-04-02 17:38:00,37.0,-4.1,27.05,North,0,0.0,0.0,17,0.00,NA,NA,-99.99,wxupload 3.5,2013-04-02 21:38:00,
2013-04-02 17:44:00,36.9,-4.2,27.05,North,0,0.0,0.0,17,0.00,NA,NA,-99.99,wxupload 3.5,2013-04-02 21:44:00,
2013-04-02 17:50:00,36.9,-4.2,27.05,North,0,0.0,0.0,17,0.00,NA,NA,-99.99,wxupload 3.5,2013-04-02 21:50:00,
2013-04-02 17:56:00,36.9,-4.2,27.05,North,0,0.0,0.0,17,0.00,NA,NA,-99.99,wxupload 3.5,2013-04-02 21:56:00,
2013-04-02 18:02:00,36.7,-4.4,27.05,North,0,0.0,0.0,17,0.00,NA,NA,-99.99,wxupload 3.5,2013-04-02 22:02:00,
2013-04-02 18:08:00,36.5,-4.5,27.05,North,0,0.0,0.0,17,0.00,NA,NA,-99.99,wxupload 3.5,2013-04-02 22:08:00,
2013-04-02 18:14:00,36.3,-4.7,27.05,North,0,0.0,0.0,17,0.00,NA,NA,-99.99,wxupload 3.5,2013-04-02 22:14:00,
2013-04-02 18:20:00,36.1,-4.8,27.05,North,0,0.0,0.0,17,0.00,NA,NA,-99.99,wxupload 3.5,2013-04-02 22:20:00,
2013-04-02 18:26:00,36.0,-5.0,27.05,North,0,0.0,0.0,17,0.00,NA,NA,-99.99,wxupload 3.5,2013-04-02 22:26:00,
2013-04-02 18:32:00,35.8,-5.1,27.05,North,0,0.0,0.0,17,0.00,NA,NA,-99.99,wxupload 3.5,2013-04-02 22:32:00,
2013-04-02 18:38:00,35.4,-5.4,27.05,North,0,0.0,0.0,17,0.00,NA,NA,-99.99,wxupload 3.5,2013-04-02 22:38:00,
2013-04-02 18:44:00,35.2,-5.6,27.05,North,0,0.0,0.0,17,0.00,NA,NA,-99.99,wxupload 3.5,2013-04-02 22:44:00,
2013-04-02 18:50:00,35.1,-5.8,27.05,North,0,0.0,0.0,17,0.00,NA,NA,-99.99,wxupload 3.5,2013-04-02 22:50:00,
2013-04-02 18:56:00,34.7,-6.1,27.05,North,0,0.0,0.0,17,0.00,NA,NA,-99.99,wxupload 3.5,2013-04-02 22:56:00,
2013-04-02 19:02:00,34.7,-6.1,27.05,North,0,0.0,0.0,17,0.00,NA,NA,-99.99,wxupload 3.5,2013-04-02 23:02:00,
2013-04-02 19:08:00,34.3,-6.4,27.05,North,0,0.0,0.0,17,0.00,NA,NA,-99.99,wxupload 3.5,2013-04-02 23:08:00,
2013-04-02 19:14:00,34.2,-6.5,27.05,North,0,0.0,0.0,17,0.00,NA,NA,-99.99,wxupload 3.5,2013-04-02 23:14:00,
2013-04-02 19:20:00,34.0,-6.7,27.05,North,0,0.0,0.0,17,0.00,NA,NA,-99.99,wxupload 3.5,2013-04-02 23:20:00,
2013-04-02 19:28:00,33.6,-5.8,27.05,North,0,0.0,0.0,18,0.00,NA,NA,-99.99,wxupload 3.5,2013-04-02 23:28:00,
2013-04-02 19:36:00,33.4,-5.9,27.05,North,0,0.0,0.0,18,0.00,NA,NA,-99.99,wxupload 3.5,2013-04-02 23:36:00,
2013-04-02 19:42:00,33.3,-6.1,27.05,North,0,0.0,0.0,18,0.00,NA,NA,-99.99,wxupload 3.5,2013-04-02 23:42:00,
2013-04-02 19:48:00,33.1,-6.2,27.05,North,0,0.0,0.0,18,0.00,NA,NA,-99.99,wxupload 3.5,2013-04-02 23:48:00,
2013-04-02 19:54:00,32.9,-6.4,27.05,North,0,0.0,0.0,18,0.00,NA,NA,-99.99,wxupload 3.5,2013-04-02 23:54:00,
2013-04-02 20:04:00,32.5,-6.7,27.05,North,0,0.0,0.0,18,0.00,NA,NA,-99.99,wxupload 3.5,2013-04-03 00:04:00,
2013-04-02 20:10:00,32.5,-6.7,27.05,North,0,0.0,0.0,18,0.00,NA,NA,-99.99,wxupload 3.5,2013-04-03 00:10:00,
2013-04-02 20:18:00,32.2,-7.0,27.05,North,0,0.0,0.0,18,0.00,NA,NA,-99.99,wxupload 3.5,2013-04-03 00:18:00,
2013-04-02 20:24:00,32.0,-7.1,27.05,North,0,0.0,0.0,18,0.00,NA,NA,-99.99,wxupload 3.5,2013-04-03 00:24:00,
2013-04-02 20:30:00,32.0,-7.1,27.05,North,0,0.0,0.0,18,0.00,NA,NA,-99.99,wxupload 3.5,2013-04-03 00:30:00,
2013-04-02 20:38:00,31.8,-7.3,27.05,North,0,0.0,0.0,18,0.00,NA,NA,-99.99,wxupload 3.5,2013-04-03 00:38:00,
2013-04-02 20:44:00,31.6,-7.4,27.05,North,0,0.0,0.0,18,0.00,NA,NA,-99.99,wxupload 3.5,2013-04-03 00:44:00,
2013-04-02 20:50:00,31.5,-7.6,27.05,North,0,0.0,0.0,18,0.00,NA,NA,-99.99,wxupload 3.5,2013-04-03 00:50:00,
2013-04-02 20:58:00,31.3,-7.7,27.05,North,0,0.0,0.0,18,0.00,NA,NA,-99.99,wxupload 3.5,2013-04-03 00:58:00,
2013-04-02 21:04:00,31.1,-7.9,27.05,North,0,0.0,0.0,18,0.00,NA,NA,-99.99,wxupload 3.5,2013-04-03 01:04:00,
2013-04-02 21:10:00,31.1,-7.9,27.05,North,0,0.0,0.0,18,0.00,NA,NA,-99.99,wxupload 3.5,2013-04-03 01:10:00,
2013-04-02 21:16:00,31.1,-7.9,27.05,North,0,0.0,0.0,18,0.00,NA,NA,-99.99,wxupload 3.5,2013-04-03 01:16:00,
2013-04-02 21:22:00,30.7,-8.2,27.05,North,0,0.0,0.0,18,0.00,NA,NA,-99.99,wxupload 3.5,2013-04-03 01:22:00,
2013-04-02 21:28:00,30.7,-8.2,27.05,North,0,0.0,0.0,18,0.00,NA,NA,-99.99,wxupload 3.5,2013-04-03 01:28:00,
2013-04-02 21:34:00,30.4,-8.5,27.05,North,0,0.0,0.0,18,0.00,NA,NA,-99.99,wxupload 3.5,2013-04-03 01:34:00,
2013-04-02 21:40:00,30.2,-8.7,27.05,North,0,0.0,0.0,18,0.00,NA,NA,-99.99,wxupload 3.5,2013-04-03 01:40:00,
2013-04-02 21:48:00,30.2,-8.7,27.05,North,0,0.0,0.0,18,0.00,NA,NA,-99.99,wxupload 3.5,2013-04-03 01:48:00,
2013-04-02 21:54:00,30.0,-8.8,27.05,North,0,0.0,0.0,18,0.00,NA,NA,-99.99,wxupload 3.5,2013-04-03 01:54:00,
2013-04-02 22:00:00,29.8,-9.0,27.05,North,0,0.0,0.0,18,0.00,NA,NA,-99.99,wxupload 3.5,2013-04-03 02:00:00,
2013-04-02 22:06:00,29.7,-9.1,27.05,North,0,0.0,0.0,18,0.00,NA,NA,-99.99,wxupload 3.5,2013-04-03 02:06:00,
2013-04-02 22:12:00,29.7,-9.1,27.05,North,0,0.0,0.0,18,0.00,NA,NA,-99.99,wxupload 3.5,2013-04-03 02:12:00,
2013-04-02 22:18:00,29.5,-9.3,27.05,North,0,0.0,0.0,18,0.00,NA,NA,-99.99,wxupload 3.5,2013-04-03 02:18:00,
2013-04-02 22:24:00,29.3,-9.4,27.05,North,0,0.0,0.0,18,0.00,NA,NA,-99.99,wxupload 3.5,2013-04-03 02:24:00,
2013-04-02 22:30:00,29.1,-9.6,27.05,North,0,0.0,0.0,18,0.00,NA,NA,-99.99,wxupload 3.5,2013-04-03 02:30:00,
2013-04-02 22:36:00,28.9,-9.7,27.05,North,0,0.0,0.0,18,0.00,NA,NA,-99.99,wxupload 3.5,2013-04-03 02:36:00,
2013-04-02 22:42:00,28.8,-9.9,27.05,North,0,0.0,0.0,18,0.00,NA,NA,-99.99,wxupload 3.5,2013-04-03 02:42:00,
2013-04-02 22:48:00,28.8,-9.9,27.05,North,0,0.0,0.0,18,0.00,NA,NA,-99.99,wxupload 3.5,2013-04-03 02:48:00,
2013-04-02 22:54:00,28.6,-10.0,27.05,North,0,0.0,0.0,18,0.00,NA,NA,-99.99,wxupload 3.5,2013-04-03 02:54:00,
2013-04-02 23:00:00,28.6,-10.0,27.05,North,0,0.0,0.0,18,0.00,NA,NA,-99.99,wxupload 3.5,2013-04-03 03:00:00,
2013-04-02 23:06:00,28.6,-10.0,27.05,North,0,0.0,0.0,18,0.00,NA,NA,-99.99,wxupload 3.5,2013-04-03 03:06:00,
2013-04-02 23:12:00,28.6,-10.0,27.05,North,0,0.0,0.0,18,0.00,NA,NA,-99.99,wxupload 3.5,2013-04-03 03:12:00,
2013-04-02 23:20:00,28.6,-10.0,27.05,North,0,0.0,0.0,18,0.00,NA,NA,-99.99,wxupload 3.5,2013-04-03 03:20:00,
2013-04-02 23:28:00,28.6,-10.0,27.05,North,0,0.0,0.0,18,0.00,NA,NA,-99.99,wxupload 3.5,2013-04-03 03:28:00,
2013-04-02 23:34:00,28.6,-10.0,27.05,North,0,0.0,0.0,18,0.00,NA,NA,-99.99,wxupload 3.5,2013-04-03 03:34:00,
2013-04-02 23:40:00,28.6,-10.0,27.05,North,0,0.0,0.0,18,0.00,NA,NA,-99.99,wxupload 3.5,2013-04-03 03:40:00,
2013-04-02 23:48:00,28.6,-10.0,27.05,North,0,0.0,0.0,18,0.00,NA,NA,-99.99,wxupload 3.5,2013-04-03 03:48:00,
2013-04-02 23:54:00,28.6,-10.0,27.05,North,0,0.0,0.0,18,0.00,NA,NA,-99.99,wxupload 3.5,2013-04-03 03:54:00,